{"data":{"norad_id":66803,"epoch":"2026-09-20T22:01:12.797472Z","epoch_age_seconds":50934,"freshness":"FRESH","line1":"1 66803U 25278N   26263.91750923  .00014214  00000+0  52491-3 0  9997","line2":"2 66803  43.0048  92.0876 0000918 292.8048  67.2707 15.27588096 45062","mean_motion":15.27588096,"eccentricity":9.18e-5,"inclination_deg":43.0048,"raan_deg":92.0876,"arg_perigee_deg":292.8048,"mean_anomaly_deg":67.2707,"bstar":0.00052491,"rev_number":4506,"period_min":94.266249113269,"perigee_km":482.39499915202,"apogee_km":483.65470846838,"semimajor_km":6861.1618538102,"source":"CELESTRAK","updated_at":"2026-09-21T09:00:36.015800Z"}}